Content
SEND FEEDBACK

Daily
Averages
Monthly
Summary
Chile

EASTER ISLAND, CHILE


Home > South America > Chile
Elevation: 154 feet     Latitude: 27 09S     Longitude: 109 25W

WEATHER
 
SELECT A DAY
Number of Records: 93,162;   Date Range: 12/26/96 - 7/20/14
 
SHARE

PRINT THIS DATA

[ ← Previous Day ]
WEATHER ALMANAC - JANUARY 18, 2013
[ Next Day → ]
[ °C ]   °F
Weather ElementAverageHighLow
Temperature74 °F79 °F (4:00 pm)71 °F (1:00 am)
Dewpoint68.1 °F70 °F (4:00 pm)66.2 °F (6:00 am)
Humidity80.6 %88 % (1:00 am)67 % (4:00 pm)
Barometer30.02 in30.05 in (1:00 pm)29.98 in (5:00 am)
Wind Speed6.3 mph12.7 mph (5:00 pm)
Weather ElementAverage
Visibility6.2 mi
Wind DirectionW (274.5 °)

Weather ElementTotal
Precipitation---
Cooling Degree Days10 (Base 65)
Growing Degree Days25 (Base 50)
Averaged from 31 records on January 18, 2013
WEATHER CONDITIONS BREAKOUT
WIND DIRECTION BREAKOUT
WEATHER BY HOUR - JANUARY 18, 2013
[ °C ]   °F
Local TimeTemperatureDewpointHumidityBarometerVisibilityWind DirectionWind SpeedGust SpeedPrecipitationEventsConditions
1:00 AM71.0 °F67.0 °F85 %30.04 in7.0 miCalmMostly Cloudy
1:00 AM71.6 °F68.0 °F88 %30.04 in6.2 miCalmMostly Cloudy
2:00 AM71.6 °F68.0 °F88 %30.04 in6.2 miCalmMostly Cloudy
3:00 AM73.4 °F68.0 °F83 %30.04 in6.2 miNNW (340°)4.6 mphMostly Cloudy
4:00 AM73.0 °F67.0 °F78 %30.00 in7.0 miNorth (350°)5.8 mphMostly Cloudy
4:00 AM73.4 °F68.0 °F83 %30.01 in6.2 miNorth (350°)5.8 mphScattered Clouds
5:00 AM73.4 °F68.0 °F83 %29.98 in6.2 miNorth (350°)4.6 mphScattered Clouds
6:00 AM71.6 °F66.2 °F83 %29.98 in6.2 miCalmScattered Clouds
7:00 AM71.0 °F67.0 °F83 %30.00 in9.0 miCalmMostly Cloudy
7:00 AM71.6 °F66.2 °F83 %30.01 in6.2 miCalmMostly Cloudy
8:00 AM71.6 °F68.0 °F88 %30.01 in6.2 miNorth (10°)4.6 mphScattered Clouds
9:00 AM71.6 °F68.0 °F88 %30.01 in6.2 miNW (320°)9.2 mphScattered Clouds
10:00 AM74.0 °F69.0 °F78 %30.04 in6.0 miNNW (330°)5.8 mphPartly Cloudy
10:00 AM73.4 °F68.0 °F83 %30.04 in6.2 miNNW (330°)5.8 mphMostly Cloudy
11:00 AM73.4 °F69.8 °F88 %30.04 in6.2 miNNW (340°)4.6 mphMostly Cloudy
12:00 PM77.0 °F69.8 °F78 %30.04 in6.2 miNorth (350°)9.2 mphScattered Clouds
1:00 PM77.0 °F68.0 °F68 %30.05 in6.0 miNNW (330°)9.2 mphPartly Cloudy
1:00 PM77.0 °F68.0 °F74 %30.04 in6.2 miNNW (330°)9.2 mphMostly Cloudy
2:00 PM77.0 °F68.0 °F74 %30.04 in5.0 miNNW (330°)9.2 mphRainLight Rain Showers
3:00 PM75.2 °F69.8 °F83 %30.04 in5.0 miNNW (340°)8.1 mphRainLight Rain Showers
4:00 PM79.0 °F70.0 °F67 %30.02 in6.0 miNW (320°)10.4 mphPartly Cloudy
4:00 PM78.8 °F69.8 °F74 %30.01 in6.2 miNW (320°)10.4 mphMostly Cloudy
5:00 PM71.6 °F68.0 °F88 %30.04 in4.3 miNW (320°)12.7 mphRainLight Rain Showers
6:00 PM75.2 °F68.0 °F78 %30.01 in6.2 miNNW (330°)10.4 mphScattered Clouds
7:00 PM76.0 °F68.0 °F71 %30.01 in6.0 miNNW (330°)5.8 mphPartly Cloudy
7:00 PM77.0 °F68.0 °F74 %30.01 in6.2 miNNW (330°)5.8 mphScattered Clouds
8:00 PM75.2 °F68.0 °F78 %30.01 in6.2 miNW (320°)10.4 mphScattered Clouds
9:00 PM73.4 °F68.0 °F83 %30.01 in6.2 miNNW (330°)9.2 mphScattered Clouds
10:00 PM73.0 °F68.0 °F80 %30.04 in6.0 miNW (320°)8.1 mphPartly Cloudy
10:00 PM73.4 °F68.0 °F83 %30.04 in6.2 miNW (320°)8.1 mphScattered Clouds
11:00 PM73.4 °F68.0 °F83 %30.04 in6.2 miNW (320°)6.9 mphScattered Clouds
Hourly data recorded from SCIP, located miles away from Easter Island, Chile







STORIES FROM OUR PARTNERS